Weather History for KCDD - December, 2013

Change the Weather History Date:

Wednesday, December 11, 2013

  Actual Average Record
Temperature  
Mean Temperature -12 °F -  
Max Temperature 0 °F 25 °F 44 °F (1998)
Min Temperature -23 °F 10 °F -23 °F (2013)
Degree Days  
Heating Degree Days 76    
Moisture  
Dew Point -17 °F    
Average Humidity 75    
Maximum Humidity 84    
Minimum Humidity 60    
Precipitation  
Precipitation 0.00 in - - ()
Sea Level Pressure  
Sea Level Pressure 30.26 in    
Wind  
Wind Speed 2 mph (SW)    
Max Wind Speed 9 mph    
Max Gust Speed -    
Visibility 10 miles    
Events      
Averages and records for this station are not official NWS values.
T = Trace of Precipitation, MM = Missing Value Source: NWS Daily Summary

Daily Weather History Graph

Daily Weather History Graph

Search for Another Location

Airport or City:

Trip Planner

Search our weather history database for the weather conditions in past years. The results will help you decide how hot, cold, wet, or windy it might be!

Date:

Astronomy

Dec. 11, 2013 Rise Set
Actual Time 7:51 AM CST 4:15 PM CST
Civil Twilight 7:14 AM CST 4:52 PM CST
Nautical Twilight 6:34 AM CST 5:31 PM CST
Astronomical Twilight 5:56 AM CST 6:09 PM CST
Moon 1:09 PM CST (12/11) 1:51 AM CST (12/11)
Length of Visible Light 9h 37m
Length of Day
8h 24m
Waxing Gibbous, 72% of the Moon is Illuminated
Dec 11
Waxing Gibbous
Dec 17
Full
Dec 25
Last Quarter
Jan 1
New
Jan 7
First Quarter

Hourly Weather History & Observations

Time (CST) Temp. Windchill Dew Point Humidity Pressure Visibility Wind Dir Wind Speed Gust Speed Precip Events Conditions
12:07 AM -14.8 °F - -18.4 °F 84% 30.17 in 10.0 mi Calm Calm - N/A   Clear
12:27 AM -14.8 °F -24.8 °F -18.4 °F 84% 30.17 in 10.0 mi WNW 3.5 mph - N/A   Clear
12:47 AM -14.8 °F -24.8 °F -18.4 °F 84% 30.18 in 10.0 mi West 3.5 mph - N/A   Clear
1:07 AM -14.8 °F - -20.2 °F 77% 30.19 in 10.0 mi Calm Calm - N/A   Clear
1:27 AM -16.6 °F - -20.2 °F 84% 30.19 in 10.0 mi Calm Calm - N/A   Clear
1:48 AM -16.6 °F -26.8 °F -20.2 °F 84% 30.21 in 10.0 mi West 3.5 mph - N/A   Clear
2:07 AM -16.6 °F -26.8 °F -20.2 °F 84% 30.22 in 10.0 mi West 3.5 mph - N/A   Clear
2:27 AM -16.6 °F - -20.2 °F 84% 30.22 in 10.0 mi Calm Calm - N/A   Clear
2:47 AM -16.6 °F - -20.2 °F 84% 30.23 in 10.0 mi Calm Calm - N/A   Clear
3:07 AM -16.6 °F -26.8 °F -20.2 °F 84% 30.24 in 10.0 mi West 3.5 mph - N/A   Clear
3:27 AM -16.6 °F - -22.0 °F 76% 30.25 in 10.0 mi Calm Calm - N/A   Clear
3:48 AM -18.4 °F - -25.6 °F 70% 30.25 in 10.0 mi Calm Calm - N/A   Clear
4:07 AM -18.4 °F - -23.8 °F 76% 30.26 in 10.0 mi Calm Calm - N/A   Clear
4:27 AM -18.4 °F - -25.6 °F 70% 30.27 in 10.0 mi Calm Calm - N/A   Clear
4:47 AM -18.4 °F - -25.6 °F 70% 30.28 in 10.0 mi Calm Calm - N/A   Clear
5:07 AM -20.2 °F - -25.6 °F 76% 30.28 in 10.0 mi Calm Calm - N/A   Clear
5:27 AM -20.2 °F - -27.4 °F 69% 30.30 in 10.0 mi Calm Calm - N/A   Clear
5:47 AM -20.2 °F - -25.6 °F 76% 30.30 in 10.0 mi Calm Calm - N/A   Clear
6:07 AM -20.2 °F - -25.6 °F 76% 30.31 in 10.0 mi Calm Calm - N/A   Clear
6:28 AM -22.0 °F - -27.4 °F 76% 30.31 in 10.0 mi Calm Calm - N/A   Clear
6:48 AM -23.8 °F - -29.2 °F 76% 30.32 in 10.0 mi Calm Calm - N/A   Clear
9:08 AM -23.8 °F - -29.2 °F 76% 30.36 in 10.0 mi Calm Calm - N/A   Clear
9:27 AM -20.2 °F - -25.6 °F 76% 30.36 in 10.0 mi Calm Calm - N/A   Clear
9:47 AM -14.8 °F - -18.4 °F 84% 30.36 in 10.0 mi Calm Calm - N/A   Clear
10:07 AM -11.2 °F -23.0 °F -14.8 °F 84% 30.36 in 10.0 mi SSW 4.6 mph - N/A   Clear
10:27 AM -7.6 °F - -13.0 °F 77% 30.36 in 10.0 mi Calm Calm - N/A   Clear
10:47 AM -7.6 °F -16.5 °F -11.2 °F 84% 30.36 in 10.0 mi WSW 3.5 mph - N/A   Clear
11:07 AM -5.8 °F -16.7 °F -11.2 °F 77% 30.35 in 4.0 mi WSW 4.6 mph - N/A   Haze
11:28 AM -5.8 °F -18.4 °F -11.2 °F 77% 30.34 in 3.0 mi West 5.8 mph - N/A   Haze
11:48 AM -4.0 °F -16.3 °F -9.4 °F 78% 30.33 in 4.0 mi SSW 5.8 mph - N/A   Haze
12:08 PM -2.2 °F -15.6 °F -9.4 °F 71% 30.32 in 3.0 mi WSW 6.9 mph - N/A   Haze
12:27 PM -2.2 °F -10.4 °F -9.4 °F 71% 30.32 in 5.0 mi SW 3.5 mph - N/A   Haze
12:47 PM -2.2 °F -16.8 °F -9.4 °F 71% 30.31 in 7.0 mi WSW 8.1 mph - N/A   Scattered Clouds
1:07 PM -0.4 °F -13.4 °F -9.4 °F 66% 30.30 in 10.0 mi West 6.9 mph - N/A   Clear
1:28 PM -0.4 °F -12.0 °F -9.4 °F 66% 30.30 in 10.0 mi West 5.8 mph - N/A   Clear
1:47 PM -0.4 °F -15.7 °F -9.4 °F 66% 30.29 in 10.0 mi SSW 9.2 mph - N/A   Clear
2:07 PM -0.4 °F -10.4 °F -11.2 °F 60% 30.29 in 10.0 mi WSW 4.6 mph - N/A   Clear
2:27 PM -0.4 °F -10.4 °F -9.4 °F 66% 30.29 in 10.0 mi West 4.6 mph - N/A   Clear
2:47 PM -0.4 °F -12.0 °F -9.4 °F 66% 30.29 in 10.0 mi SW 5.8 mph - N/A   Clear
3:08 PM -0.4 °F -12.0 °F -11.2 °F 60% 30.29 in 10.0 mi SSW 5.8 mph - N/A   Clear
3:27 PM -2.2 °F -10.4 °F -11.2 °F 66% 30.29 in 10.0 mi SSW 3.5 mph - N/A   Clear
3:47 PM -5.8 °F -18.4 °F -14.8 °F 65% 30.29 in 10.0 mi SSW 5.8 mph - N/A   Clear
4:07 PM -5.8 °F -16.7 °F -14.8 °F 65% 30.28 in 10.0 mi SSW 4.6 mph - N/A   Clear
4:27 PM -7.6 °F - -14.8 °F 71% 30.28 in 10.0 mi Calm Calm - N/A   Clear
4:47 PM -7.6 °F - -14.8 °F 71% 30.28 in 10.0 mi Calm Calm - N/A   Clear
5:07 PM -11.2 °F -20.6 °F -18.4 °F 70% 30.27 in 10.0 mi South 3.5 mph - N/A   Clear
5:27 PM -9.4 °F -18.6 °F -16.6 °F 71% 30.26 in 10.0 mi South 3.5 mph - N/A   Clear
5:47 PM -9.4 °F - -16.6 °F 71% 30.24 in 10.0 mi Calm Calm - N/A   Clear
6:07 PM -11.2 °F -23.0 °F -16.6 °F 77% 30.24 in 10.0 mi South 4.6 mph - N/A   Clear
6:27 PM -9.4 °F - -14.8 °F 77% 30.25 in 10.0 mi Calm Calm - N/A   Clear
6:47 PM -9.4 °F -22.7 °F -14.8 °F 77% 30.25 in 10.0 mi SSW 5.8 mph - N/A   Clear
7:07 PM -9.4 °F -20.9 °F -14.8 °F 77% 30.25 in 10.0 mi SSW 4.6 mph - N/A   Clear
7:27 PM -9.4 °F -18.6 °F -14.8 °F 77% 30.24 in 10.0 mi South 3.5 mph - N/A   Scattered Clouds
7:47 PM -11.2 °F -23.0 °F -16.6 °F 77% 30.23 in 10.0 mi South 4.6 mph - N/A   Scattered Clouds
8:07 PM -11.2 °F -23.0 °F -16.6 °F 77% 30.23 in 10.0 mi South 4.6 mph - N/A   Clear
8:27 PM -11.2 °F -20.6 °F -16.6 °F 77% 30.22 in 10.0 mi South 3.5 mph - N/A   Scattered Clouds
8:47 PM -11.2 °F -23.0 °F -14.8 °F 84% 30.21 in 10.0 mi South 4.6 mph - N/A   Scattered Clouds
9:07 PM -11.2 °F -23.0 °F -14.8 °F 84% 30.20 in 10.0 mi SSW 4.6 mph - N/A   Scattered Clouds
9:27 PM -11.2 °F -23.0 °F -16.6 °F 77% 30.19 in 10.0 mi South 4.6 mph - N/A   Scattered Clouds
9:47 PM -11.2 °F -20.6 °F -16.6 °F 77% 30.19 in 10.0 mi South 3.5 mph - N/A   Scattered Clouds
10:07 PM -11.2 °F -23.0 °F -16.6 °F 77% 30.19 in 10.0 mi South 4.6 mph - N/A   Clear
10:27 PM -11.2 °F -24.8 °F -16.6 °F 77% 30.19 in 10.0 mi South 5.8 mph - N/A   Clear
10:47 PM -13.0 °F -22.7 °F -18.4 °F 77% 30.19 in 10.0 mi South 3.5 mph - N/A   Clear
11:07 PM -14.8 °F - -18.4 °F 84% 30.18 in 10.0 mi Calm Calm - N/A   Clear
11:27 PM -16.6 °F - -23.8 °F 70% 30.18 in 10.0 mi Calm Calm - N/A   Clear
11:47 PM -18.4 °F - -25.6 °F 70% 30.17 in 10.0 mi Calm Calm - N/A   Clear